User: anonymous   Login
Location: Unspecified
(0.0000°N, 0.0000°E)
Time: 05:13:41
(UTC+00:00)
Language:

JASON - Orbit

View from above orbital plane
View from above orbital plane
View from above satellite
View from above satellite

Ground track
Ground track

The orbit data is extracted from the following two-line orbital elements,

1 26997U 01055A   18292.31924956 -.00000059 +00000-0 +99931-5 0  9996
2 26997 066.0373 158.0710 0007451 257.8126 225.9956 12.83994406789413
Epoch (UTC): 19 October 2018 07:39:43
Eccentricity: 0.0007451
inclination: 66.0373°
perigee height: 1320 km
apogee height: 1331 km
right ascension of ascending node: 158.0710°
argument of perigee: 257.8126°
revolutions per day: 12.83994406
mean anomaly at epoch: 225.9956°
orbit number at epoch: 78941

The dashed part of the orbit path shows where the satellite is in the earth's shadow,  

DLR